Regional Weather Roundup
Issued by NWS

Home | Current Version | Previous Version | Graphics & Text | Print | Product List | Glossary On
Versions: 1 2 3 4 5 6 7 8 9 10 11 12 13 14 15 16 17 18 19 20 21 22 23 24 25 26 27 28 29 30 31 32 33 34 35 36 37 38 39 40 41 42 43 44 45 46 47 48 49 50
000
ASUS43 KIND 250559
RWRIN

WEATHER ROUNDUP FOR INDIANA
NATIONAL WEATHER SERVICE INDIANAPOLIS IN
200 AM EDT FRI JUL 25 2014

NOTE: "FAIR" INDICATES FEW OR NO CLOUDS BELOW 12,000 FEET WITH NO
SIGNIFICANT WEATHER AND/OR OBSTRUCTIONS TO VISIBILITY.

* - STATION DOES NOT REPORT WEATHER SUCH AS PRECIPITATION OR FOG.

+ - STATION NOT QUALITY CONTROLLED BY THE NATIONAL WEATHER SERVICE.
    USE DATA WITH CAUTION...ESPECIALLY DEWPOINT AND RELATIVE
    HUMIDITY OBSERVATIONS.

INZ001>003-010>013-019-020-250700-
NORTHWEST INDIANA

CITY           SKY/WX    TMP DP  RH WIND       PRES   REMARKS
GARY /AIRPORT/ CLEAR     54  52  94 CALM      30.06F
KNOX *+        PTCLDY    51  49  91 CALM      30.05F
MONTICELLO +   CLEAR     58  54  88 CALM      30.06F
RENSSELAER +   CLEAR     52  52 100 CALM      30.07F
VALPARAISO     PTCLDY    50  49  96 CALM      30.07S
6HR MIN TEMP:  50; 6HR MAX TEMP:  68;


$$

LMZ046-743>745-250700-
SOUTHERN LAKE MICHIGAN

STATION/POSITION TIME  TEMP WIND        PRES
                       AIR  DIR/SP/G
                 (UTC) (F)  (DEG/KT/KT) (MB)
MICHIGAN CITY    0500   59  140/  4/  6   N/A

$$

INZ004-005-014>016-021>024-250700-
NORTH CENTRAL INDIANA

CITY           SKY/WX    TMP DP  RH WIND       PRES   REMARKS
GOSHEN         PTCLDY    56  52  86 CALM      30.06F
6HR MIN TEMP:  56; 6HR MAX TEMP:  74;

SOUTH BEND     CLEAR     59  51  75 E3        30.07F
6HR MIN TEMP:  57; 6HR MAX TEMP:  70;

WARSAW +       PTCLDY    54  52  94 CALM      30.07F

$$

INZ006>009-017-018-025>027-250700-
NORTHEAST INDIANA

CITY           SKY/WX    TMP DP  RH WIND       PRES   REMARKS
ANGOLA *+      CLEAR     55  54  94 CALM      30.07F
AUBURN +       CLEAR     55  50  82 CALM      30.08S
FORT WAYNE     PTCLDY    57  53  86 CALM      30.07S
6HR MIN TEMP:  57; 6HR MAX TEMP:  72;


$$

INZ028-029-035-036-043>045-051>053-250700-
WEST CENTRAL INDIANA

CITY           SKY/WX    TMP DP  RH WIND       PRES   REMARKS
GREENCASTLE +  PTCLDY    55  54  94 CALM      30.08S
LAFAYETTE      CLEAR     58  54  86 CALM      30.07R
6HR MIN TEMP:  57; 6HR MAX TEMP:  73;

TERRE HAUTE    PTCLDY    55  54  96 CALM      30.07R
6HR MIN TEMP:  55; 6HR MAX TEMP:  74;


$$

INZ030>032-037>040-046>048-054>057-064-065-250700-
CENTRAL INDIANA

CITY           SKY/WX    TMP DP  RH WIND       PRES   REMARKS
INDIANAPOLIS   PTCLDY    62  54  74 CALM      30.06R
6HR MIN TEMP:  61; 6HR MAX TEMP:  73;

-EAGLE CREEK   PTCLDY    60  54  80 CALM      30.06S
6HR MIN TEMP:  60; 6HR MAX TEMP:  74;

KOKOMO *+      PTCLDY    54  52  94 CALM      30.07S
MT COMFORT *+  CLEAR     54 N/A N/A CALM      30.07S
SHELBYVILLE    CLEAR     58  53  84 CALM      30.07R
6HR MIN TEMP:  57; 6HR MAX TEMP:  73;


$$

INZ033-034-041-042-049-050-058-059-250700-
EAST CENTRAL INDIANA

CITY           SKY/WX    TMP DP  RH WIND       PRES   REMARKS
MUNCIE         CLEAR     56  51  84 CALM      30.07R
6HR MIN TEMP:  55; 6HR MAX TEMP:  72;


$$

INZ060-061-067>069-081>083-085>088-250700-
SOUTHWEST INDIANA

CITY           SKY/WX    TMP DP  RH WIND       PRES   REMARKS
EVANSVILLE     CLEAR     63  57  81 CALM      30.04F
6HR MIN TEMP:  63; 6HR MAX TEMP:  78;

HUNTINGBURG *+ MOCLDY    61  54  77 E3        30.05S
6HR MIN TEMP:  61; 6HR MAX TEMP:  73;


$$

INZ062-063-066-070>080-084-089>092-250700-
SOUTH CENTRAL AND SOUTHEAST INDIANA

CITY           SKY/WX    TMP DP  RH WIND       PRES   REMARKS
BLOOMINGTON    PTCLDY    56  54  93 CALM      30.06S
6HR MIN TEMP:  55; 6HR MAX TEMP:  72;


$$



USA.gov is the U.S. government's official web portal to all federal, state and local government web resources and services.